Regional Weather Roundup
Issued by NWS

Home | Current Version | Previous Version | Text Only | Print | Product List | Glossary Off
Versions: 1 2 3 4 5 6 7 8 9 10 11 12 13 14 15 16 17 18 19 20 21 22 23 24 25 26 27 28 29 30 31 32 33 34 35 36 37 38 39 40 41 42 43 44 45 46 47 48 49 50

656
ASUS43 KBIS 100010
RWRND

NORTH DAKOTA REGIONAL WEATHER ROUNDUP
NATIONAL WEATHER SERVICE BISMARCK ND
600 PM CST FRI DEC 09 2016

NOTE: "FAIR" INDICATES FEW OR NO CLOUDS BELOW 12,000 FEET WITH NO
SIGNIFICANT WEATHER AND/OR OBSTRUCTIONS TO VISIBILITY.


NDZ001>003-009>011-017-100100-
NORTHWEST NORTH DAKOTA

CITY           SKY/WX    TMP DP  RH WIND       PRES   REMARKS
WILLISTON      CLOUDY    -9 -14  78 E3        30.51F
6HR MIN TEMP:  -9; 6HR MAX TEMP:  -2;

MINOT          CLOUDY   -10 -15  78 W7        30.52S WCI -25
MINOT AFB      CLEAR    -16 -21  76 W7        30.52S WCI -32
$$

NDZ018>021-031>035-040>046-100100-
SOUTHWEST NORTH DAKOTA

CITY           SKY/WX    TMP DP  RH WIND       PRES   REMARKS
BISMARCK       CLOUDY    -6 -10  83 N6        30.54S WCI -19
6HR MIN TEMP:  -6; 6HR MAX TEMP:   1; 6HR PCP: TRACE;

DICKINSON      CLOUDY    -9 -15  75 CALM      30.40F
GARRISON         N/A    -11 -16  78 W6        30.50F WCI -25
6HR MIN TEMP: -11; 6HR MAX TEMP:  -5;

HETTINGER ARPT CLOUDY    -6 -10  83 CALM      30.42F
$$

NDZ004>008-012>016-024-026-027-054-100100-
NORTHEAST NORTH DAKOTA

CITY           SKY/WX    TMP DP  RH WIND       PRES   REMARKS
GRAND FORKS    CLEAR     -7 -12  79 NW7       30.56S WCI -21
GRND FRKS AFB  MOCLDY    -4 -11  71 NW8       30.56S WCI -19
DEVILS LAKE    MOCLDY    -9 -15  77 NW13      30.52S WCI -30
$$

NDZ022-023-025-028>030-036>039-047>053-100100-
SOUTHEAST NORTH DAKOTA

CITY           SKY/WX    TMP DP  RH WIND       PRES   REMARKS
FARGO          PTCLDY     1  -6  72 W8        30.56S WCI -13
6HR MIN TEMP:   1; 6HR MAX TEMP:   7;

JAMESTOWN      CLEAR     -9 -14  78 NW13      30.52S WCI -29
$$





USA.gov is the U.S. government's official web portal to all federal, state and local government web resources and services.